�������l�o���
Date,Time,MP-1(��Sv/h),MP-2(��Sv/h),MP-3(��Sv/h),MP-4(��Sv/h),MP-5(��Sv/h),MP-6(��Sv/h),MP-7(��Sv/h),MP-8(��Sv/h),����,����(m/s),���J
2018/12/14,00:00,0.764,1.143,0.800,1.451,1.030,0.446,0.791,0.749,��쐼,9.0,��
2018/12/14,00:10,0.763,1.144,0.802,1.451,1.030,0.445,0.790,0.750,��쐼,8.5,��
2018/12/14,00:20,0.766,1.144,0.802,1.452,1.031,0.447,0.791,0.749,��쐼,9.0,��
2018/12/14,00:30,0.765,1.145,0.801,1.451,1.031,0.446,0.791,0.751,��쐼,7.9,��
2018/12/14,00:40,0.766,1.146,0.802,1.450,1.029,0.447,0.791,0.749,��쐼,7.5,��
2018/12/14,00:50,0.766,1.145,0.803,1.449,1.030,0.446,0.790,0.751,��,6.7,��
2018/12/14,01:00,0.766,1.141,0.799,1.451,1.031,0.447,0.791,0.751,��,6.3,��
2018/12/14,01:10,0.765,1.145,0.801,1.451,1.029,0.449,0.790,0.749,��쐼,4.2,��
2018/12/14,01:20,0.764,1.146,0.801,1.450,1.031,0.447,0.790,0.750,�쐼,3.2,��
2018/12/14,01:30,0.764,1.144,0.802,1.448,1.029,0.447,0.789,0.750,��쐼,3.5,��
2018/12/14,01:40,0.765,1.147,0.801,1.448,1.029,0.447,0.791,0.749,��,5.6,��
2018/12/14,01:50,0.766,1.145,0.803,1.449,1.029,0.448,0.791,0.751,��,5.5,��
2018/12/14,02:00,0.765,1.142,0.802,1.451,1.031,0.447,0.791,0.751,��,5.9,��
2018/12/14,02:10,0.766,1.145,0.801,1.449,1.030,0.447,0.790,0.750,��,5.3,��
2018/12/14,02:20,0.766,1.145,0.803,1.451,1.029,0.448,0.792,0.749,��,4.5,��
2018/12/14,02:30,0.769,1.146,0.801,1.452,1.032,0.446,0.792,0.750,��,4.0,��
2018/12/14,02:40,0.765,1.147,0.803,1.452,1.032,0.447,0.791,0.750,�쐼,3.9,��
2018/12/14,02:50,0.766,1.145,0.802,1.449,1.029,0.446,0.791,0.750,�쐼,4.8,��
2018/12/14,03:00,0.766,1.147,0.802,1.449,1.031,0.447,0.792,0.750,�쐼,6.1,��
2018/12/14,03:10,0.766,1.145,0.802,1.450,1.031,0.448,0.792,0.749,�쐼,7.0,��
2018/12/14,03:20,0.766,1.144,0.802,1.452,1.032,0.447,0.791,0.751,�쐼,8.5,��
2018/12/14,03:30,0.766,1.144,0.802,1.449,1.029,0.448,0.792,0.752,���쐼,9.1,��
2018/12/14,03:40,0.765,1.146,0.802,1.451,1.030,0.447,0.790,0.751,���쐼,7.3,��
2018/12/14,03:50,0.766,1.146,0.803,1.450,1.033,0.446,0.791,0.750,�쐼,8.2,��
2018/12/14,04:00,0.766,1.144,0.803,1.451,1.029,0.448,0.793,0.750,���쐼,8.5,��
2018/12/14,04:10,0.764,1.143,0.803,1.449,1.032,0.448,0.792,0.751,���쐼,9.3,��
2018/12/14,04:20,0.766,1.147,0.802,1.452,1.028,0.447,0.791,0.749,���쐼,9.6,��
2018/12/14,04:30,0.765,1.145,0.804,1.451,1.031,0.447,0.793,0.750,���쐼,7.7,��
2018/12/14,04:40,0.763,1.146,0.802,1.453,1.030,0.447,0.792,0.749,��,8.7,��
2018/12/14,04:50,0.765,1.147,0.802,1.452,1.033,0.447,0.793,0.751,��,10.0,��
2018/12/14,05:00,0.766,1.145,0.804,1.453,1.030,0.448,0.793,0.752,��,6.4,��
2018/12/14,05:10,0.765,1.147,0.803,1.452,1.032,0.447,0.792,0.751,��,5.0,��
2018/12/14,05:20,0.764,1.145,0.803,1.453,1.030,0.449,0.792,0.749,���k��,6.7,��
2018/12/14,05:30,0.765,1.147,0.802,1.451,1.030,0.447,0.792,0.750,���k��,7.8,��
2018/12/14,05:40,0.765,1.144,0.802,1.454,1.030,0.449,0.792,0.750,���k��,5.6,��
2018/12/14,05:50,0.764,1.145,0.803,1.455,1.030,0.448,0.793,0.750,���k��,8.9,��
2018/12/14,06:00,0.765,1.146,0.801,1.453,1.030,0.449,0.791,0.751,���k��,10.2,��
2018/12/14,06:10,0.765,1.145,0.803,1.454,1.031,0.448,0.792,0.750,���k��,10.3,��
2018/12/14,06:20,0.763,1.141,0.801,1.453,1.030,0.447,0.792,0.750,���k��,10.2,��
2018/12/14,06:30,0.765,1.147,0.804,1.452,1.030,0.449,0.792,0.749,���k��,9.8,��
2018/12/14,06:40,0.764,1.146,0.802,1.453,1.030,0.449,0.791,0.751,���k��,9.7,�L
2018/12/14,06:50,0.765,1.146,0.803,1.453,1.032,0.448,0.791,0.750,���k��,9.7,�L
2018/12/14,07:00,0.765,1.148,0.802,1.454,1.030,0.448,0.791,0.751,���k��,9.8,�L
2018/12/14,07:10,0.763,1.145,0.802,1.453,1.032,0.447,0.792,0.749,���k��,8.7,��
2018/12/14,07:20,0.764,1.146,0.803,1.453,1.030,0.447,0.792,0.749,���k��,8.4,��
2018/12/14,07:30,0.763,1.145,0.801,1.453,1.033,0.447,0.791,0.751,���k��,7.4,��
2018/12/14,07:40,0.762,1.147,0.802,1.454,1.033,0.448,0.792,0.750,���k��,7.3,��
2018/12/14,07:50,0.762,1.145,0.801,1.453,1.032,0.448,0.793,0.750,�k��,6.5,��
2018/12/14,08:00,0.764,1.146,0.801,1.454,1.031,0.448,0.792,0.750,���k��,6.8,��
2018/12/14,08:10,0.767,1.147,0.801,1.454,1.032,0.448,0.793,0.751,���k��,7.2,�L
2018/12/14,08:20,0.765,1.146,0.802,1.455,1.032,0.447,0.792,0.752,���k��,6.8,�L
2018/12/14,08:30,0.764,1.143,0.802,1.456,1.029,0.448,0.792,0.752,���k��,5.6,�L
2018/12/14,08:40,0.766,1.145,0.802,1.455,1.030,0.448,0.791,0.750,��,5.7,�L
2018/12/14,08:50,0.766,1.141,0.799,1.453,1.031,0.448,0.791,0.750,��,5.2,�L
2018/12/14,09:00,0.765,1.143,0.802,1.455,1.033,0.449,0.790,0.750,���k��,4.0,�L
2018/12/14,09:10,0.766,1.147,0.803,1.454,1.032,0.448,0.791,0.750,���k��,5.5,��
2018/12/14,09:20,0.765,1.141,0.803,1.454,1.033,0.447,0.791,0.749,���k��,4.8,��
2018/12/14,09:30,0.765,1.141,0.802,1.452,1.028,0.449,0.791,0.749,�k��,6.6,��
2018/12/14,09:40,0.763,1.141,0.803,1.453,1.031,0.447,0.792,0.751,�k��,5.8,��
2018/12/14,09:50,0.765,1.139,0.801,1.456,1.028,0.447,0.792,0.749,���k��,5.5,��
2018/12/14,10:00,0.765,1.139,0.802,1.453,0.999,0.447,0.791,0.752,���k��,5.5,��
2018/12/14,10:10,0.763,1.145,0.802,1.452,1.017,0.446,0.792,0.750,��,4.3,��
2018/12/14,10:20,0.765,1.138,0.801,1.452,1.033,0.446,0.793,0.752,���k��,6.9,��
2018/12/14,10:30,0.765,1.136,0.801,1.451,1.024,0.446,0.789,0.751,���k��,7.3,��
2018/12/14,10:40,0.766,1.140,0.802,1.454,1.032,0.447,0.790,0.750,���k��,5.3,��
2018/12/14,10:50,0.765,1.141,0.800,1.455,1.032,0.446,0.790,0.750,���k��,5.0,��
2018/12/14,11:00,0.764,1.141,0.801,1.455,1.032,0.447,0.789,0.750,���k��,5.5,��
2018/12/14,11:10,0.765,1.143,0.803,1.455,1.033,0.449,0.792,0.750,�k��,8.4,��
2018/12/14,11:20,0.765,1.145,0.802,1.455,1.032,0.448,0.789,0.751,�k��,7.6,��
2018/12/14,11:30,0.766,1.144,0.802,1.454,1.026,0.447,0.789,0.753,���k��,7.0,��
2018/12/14,11:40,0.766,1.142,0.802,1.454,1.029,0.446,0.789,0.750,�k��,7.3,��
2018/12/14,11:50,0.769,1.143,0.801,1.457,1.034,0.446,0.790,0.750,�k��,4.0,��
2018/12/14,12:00,0.765,1.144,0.802,1.454,1.036,0.447,0.789,0.750,�k��,3.5,��
2018/12/14,12:10,0.766,1.146,0.802,1.457,1.035,0.448,0.787,0.751,��,4.7,��
2018/12/14,12:20,0.768,1.147,0.802,1.455,1.035,0.448,0.793,0.752,���k��,4.8,��
2018/12/14,12:30,0.768,1.146,0.803,1.456,1.035,0.447,0.791,0.752,���k��,4.5,��
2018/12/14,12:40,0.767,1.147,0.805,1.453,1.034,0.448,0.791,0.750,���k��,4.7,��
2018/12/14,12:50,0.765,1.144,0.804,1.458,1.035,0.448,0.791,0.751,���k��,4.4,��
2018/12/14,13:00,0.768,1.144,0.803,1.455,1.035,0.448,0.791,0.751,���k��,4.1,��
2018/12/14,13:10,0.766,1.144,0.804,1.456,1.033,0.449,0.791,0.752,���k��,3.1,��
2018/12/14,13:20,0.770,1.143,0.804,1.456,1.034,0.447,0.791,0.752,���k��,3.4,��
2018/12/14,13:30,0.769,1.143,0.804,1.459,1.033,0.448,0.790,0.751,�k��,3.6,��
2018/12/14,13:40,0.766,1.143,0.803,1.456,1.034,0.448,0.791,0.751,���k��,5.1,�L
2018/12/14,13:50,0.765,1.144,0.803,1.458,1.034,0.448,0.791,0.751,���k��,8.0,�L
2018/12/14,14:00,0.768,1.148,0.804,1.459,1.033,0.449,0.789,0.751,���k��,7.7,�L
2018/12/14,14:10,0.768,1.146,0.805,1.459,1.034,0.450,0.790,0.749,�k��,6.3,�L
2018/12/14,14:20,0.768,1.146,0.803,1.455,1.036,0.448,0.789,0.751,�k�k��,4.6,�L
2018/12/14,14:30,0.767,1.143,0.804,1.460,1.035,0.448,0.790,0.753,�k,3.8,��
2018/12/14,14:40,0.769,1.144,0.805,1.459,1.036,0.447,0.791,0.751,�k�k��,5.4,��
2018/12/14,14:50,0.768,1.145,0.802,1.460,1.034,0.449,0.790,0.750,�k�k��,5.5,��
2018/12/14,15:00,0.768,1.148,0.803,1.457,1.037,0.449,0.790,0.749,�k�k��,4.5,��
2018/12/14,15:10,0.767,1.147,0.803,1.459,1.036,0.448,0.791,0.751,�k��,4.8,��
2018/12/14,15:20,0.766,1.146,0.802,1.456,1.034,0.447,0.791,0.750,�k�k��,4.9,��
2018/12/14,15:30,0.768,1.146,0.804,1.458,1.035,0.448,0.793,0.750,�k�k��,4.8,��
2018/12/14,15:40,0.767,1.148,0.802,1.459,1.034,0.447,0.791,0.750,�k�k��,4.4,��
2018/12/14,15:50,0.767,1.148,0.803,1.457,1.035,0.447,0.790,0.749,�k��,6.4,��
2018/12/14,16:00,0.765,1.145,0.801,1.457,1.035,0.446,0.792,0.750,�k��,6.6,��
2018/12/14,16:10,0.768,1.150,0.802,1.459,1.033,0.447,0.793,0.749,�k��,5.5,��
2018/12/14,16:20,0.766,1.146,0.802,1.455,1.035,0.447,0.792,0.751,�k��,4.9,��
2018/12/14,16:30,0.766,1.147,0.802,1.456,1.035,0.446,0.791,0.752,�k��,5.0,��
2018/12/14,16:40,0.767,1.147,0.804,1.458,1.034,0.447,0.792,0.749,�k�k��,5.6,��
2018/12/14,16:50,0.764,1.148,0.802,1.459,1.036,0.447,0.792,0.750,�k��,5.2,��
2018/12/14,17:00,0.764,1.149,0.802,1.456,1.032,0.445,0.791,0.751,�k��,5.6,��
2018/12/14,17:10,0.763,1.147,0.802,1.456,1.035,0.446,0.791,0.751,�k��,4.8,��
2018/12/14,17:20,0.766,1.147,0.805,1.455,1.033,0.446,0.790,0.750,�k��,5.2,��
2018/12/14,17:30,0.767,1.148,0.804,1.458,1.034,0.444,0.790,0.751,���k��,4.9,��
2018/12/14,17:40,0.767,1.149,0.804,1.454,1.034,0.447,0.792,0.750,���k��,4.3,��
2018/12/14,17:50,0.767,1.149,0.802,1.454,1.034,0.446,0.792,0.748,�k��,4.5,��
2018/12/14,18:00,0.768,1.149,0.803,1.449,1.034,0.447,0.791,0.752,���k��,4.4,��
2018/12/14,18:10,0.766,1.151,0.803,1.455,1.033,0.446,0.790,0.751,���k��,3.5,��
2018/12/14,18:20,0.765,1.148,0.802,1.450,1.034,0.445,0.790,0.748,���k��,2.6,��
2018/12/14,18:30,0.766,1.149,0.803,1.450,1.034,0.446,0.791,0.750,���k��,2.0,��
2018/12/14,18:40,0.766,1.149,0.801,1.449,1.035,0.446,0.790,0.751,��,2.2,��
2018/12/14,18:50,0.765,1.149,0.804,1.448,1.033,0.446,0.789,0.750,�k��,2.2,��
2018/12/14,19:00,0.765,1.150,0.803,1.448,1.034,0.446,0.790,0.751,�k��,2.6,��
2018/12/14,19:10,0.764,1.148,0.801,1.447,1.034,0.446,0.790,0.752,�k��,2.8,�L
2018/12/14,19:20,0.765,1.148,0.801,1.450,1.035,0.446,0.789,0.750,�k�k��,2.6,�L
2018/12/14,19:30,0.765,1.149,0.803,1.449,1.032,0.445,0.789,0.751,�k�k��,2.2,��
2018/12/14,19:40,0.766,1.150,0.804,1.447,1.034,0.444,0.791,0.750,�k�k��,1.7,��
2018/12/14,19:50,0.765,1.149,0.802,1.447,1.034,0.447,0.790,0.749,�k�k��,1.2,��
2018/12/14,20:00,0.765,1.150,0.803,1.445,1.034,0.446,0.789,0.751,�k��,1.2,��
2018/12/14,20:10,0.764,1.147,0.805,1.446,1.033,0.446,0.790,0.750,�k��,1.5,��
2018/12/14,20:20,0.767,1.148,0.803,1.448,1.033,0.447,0.791,0.751,�k�k��,2.9,��
2018/12/14,20:30,0.765,1.150,0.803,1.451,1.033,0.445,0.791,0.750,�k�k��,3.7,��
2018/12/14,20:40,0.764,1.150,0.801,1.449,1.035,0.446,0.789,0.750,�k�k��,3.7,��
2018/12/14,20:50,0.765,1.148,0.803,1.445,1.033,0.446,0.790,0.750,�k�k��,3.3,��
2018/12/14,21:00,0.766,1.147,0.801,1.447,1.034,0.446,0.791,0.749,�k�k��,3.3,��
2018/12/14,21:10,0.766,1.149,0.803,1.452,1.034,0.446,0.789,0.751,�k��,3.4,��
2018/12/14,21:20,0.765,1.147,0.802,1.451,1.033,0.445,0.789,0.750,�k��,2.9,��
2018/12/14,21:30,0.766,1.149,0.802,1.450,1.035,0.446,0.790,0.750,���k��,2.3,��
2018/12/14,21:40,0.764,1.150,0.803,1.448,1.034,0.446,0.789,0.751,���k��,2.9,��
2018/12/14,21:50,0.766,1.148,0.803,1.457,1.036,0.446,0.790,0.749,�k��,2.2,��
2018/12/14,22:00,0.766,1.148,0.802,1.456,1.034,0.445,0.789,0.749,���k��,2.3,��
2018/12/14,22:10,0.764,1.146,0.804,1.456,1.035,0.445,0.787,0.749,���k��,2.2,��
2018/12/14,22:20,0.764,1.145,0.802,1.456,1.034,0.446,0.788,0.750,�k�k��,2.8,��
2018/12/14,22:30,0.766,1.150,0.803,1.458,1.034,0.444,0.790,0.749,�k��,2.6,��
2018/12/14,22:40,0.762,1.147,0.803,1.456,1.034,0.445,0.788,0.751,�k��,2.3,��
2018/12/14,22:50,0.766,1.151,0.804,1.458,1.033,0.446,0.789,0.749,�k�k��,1.7,��
2018/12/14,23:00,0.763,1.148,0.804,1.456,1.036,0.446,0.789,0.750,�k�k��,0.6,��
2018/12/14,23:10,0.764,1.147,0.802,1.458,1.034,0.447,0.788,0.750,�k��,0.6,��
2018/12/14,23:20,0.765,1.149,0.802,1.457,1.035,0.446,0.789,0.751,�k�k��,1.2,��
2018/12/14,23:30,0.764,1.148,0.800,1.456,1.032,0.446,0.788,0.749,�k��,2.3,��
2018/12/14,23:40,0.762,1.146,0.801,1.457,1.032,0.445,0.788,0.748,���k��,2.3,��
2018/12/14,23:50,0.763,1.147,0.802,1.456,1.033,0.445,0.788,0.749,���k��,1.9,��
